This is the latest recevied weather packets stored in our database for station/object DG1JLA-3. If no packets are shown the sender has not sent any weather packets the latest 10 day(s).
| Time | Temp. | Humidity | Pressure | Rain* | Wind** | Luminosity | Snow |
|---|---|---|---|---|---|---|---|
| 1777745700 | 21.11° C | 48% | 1019.6 hPa | 0 mm | - | - | - |
| 1777745400 | 21.11° C | 47% | 1019.6 hPa | 0 mm | - | - | - |
| 1777745100 | 21.11° C | 47% | 1019.6 hPa | 0 mm | - | - | - |
| 1777744800 | 21.67° C | 48% | 1019.6 hPa | 0 mm | - | - | - |
| 1777744500 | 22.22° C | 46% | 1019.6 hPa | 0 mm | - | - | - |
| 1777744201 | 22.78° C | 45% | 1019.7 hPa | 0 mm | - | - | - |
| 1777743901 | 22.78° C | 43% | 1019.7 hPa | 0 mm | - | - | - |
| 1777743601 | 23.33° C | 42% | 1019.6 hPa | 0 mm | - | - | - |
| 1777743301 | 23.89° C | 41% | 1019.7 hPa | 0 mm | - | - | - |
| 1777743001 | 24.44° C | 40% | 1019.8 hPa | 0 mm | - | - | - |
| 1777742701 | 24.44° C | 40% | 1019.8 hPa | 0 mm | - | - | - |
| 1777742401 | 24.44° C | 40% | 1019.8 hPa | 0 mm | - | - | - |
| 1777742101 | 24.44° C | 41% | 1019.8 hPa | 0 mm | - | - | - |
| 1777741801 | 25° C | 40% | 1019.8 hPa | 0 mm | - | - | - |
| 1777741501 | 25° C | 40% | 1019.8 hPa | 0 mm | - | - | - |
| 1777741201 | 25° C | 40% | 1019.8 hPa | 0 mm | - | - | - |
| 1777740901 | 25° C | 40% | 1019.9 hPa | 0 mm | - | - | - |
| 1777740601 | 25.56° C | 40% | 1019.9 hPa | 0 mm | - | - | - |
| 1777740301 | 25.56° C | 40% | 1019.9 hPa | 0 mm | - | - | - |
| 1777740001 | 25° C | 40% | 1019.9 hPa | 0 mm | - | - | - |
| 1777739701 | 25.56° C | 38% | 1020 hPa | 0 mm | - | - | - |
| 1777739401 | 26.11° C | 37% | 1020.2 hPa | 0 mm | - | - | - |
| 1777739101 | 26.11° C | 37% | 1020.2 hPa | 0 mm | - | - | - |
| 1777738801 | 26.11° C | 37% | 1020.1 hPa | 0 mm | - | - | - |
| 1777738501 | 26.11° C | 38% | 1020.4 hPa | 0 mm | - | - | - |
* Rain latest hour (hover to see other rain measurements)
** Current wind speed in m/s (hover to see current wind gust speed)